Location: Ergnies
(50.0854°N, 2.0375°E)
Time: 09:24:35
(UTC+00:00)

Thor Agena Rocket - Pass Details

Date: 14 January 2026
Orbit: 755 x 801 km, 99.1° (Epoch: 18 February)

Event Time Altitude Azimuth Distance (km) Brightness Sun altitude
Rises 06:11:24 0° 18° (NNE) 3,239 6.8 -14.5°
Reaches altitude 10° 06:13:44 10° 22° (NNE) 2,314 6.1 -14.2°
Maximum altitude 06:18:47 62° 103° (ESE) 868 4.1 -13.4°
Drops below altitude 10° 06:23:51 10° 184° (S) 2,325 6.2 -12.6°
Sets 06:26:12 0° 188° (S) 3,256 6.9 -12.3°
